GFSNGP_700_spd_165.txt.gz
Wind_Speed
25 28 32 21 21 15 16 16 10 15 19 23 12 11 7 7 10 16 17 16 17 21 30 32 33 35 40 40 38 33 35 25 28 27 23 22 22 24 22 21 21 21 21 19
21 19 20 31 33 31 30 27 26 23 30 21 22 30 27 14 19 20 26 24 24 21 24 24 28 32 39 39 39 35 31 29 27 25 25 25 25 24 22 22 21 21 20 19
21 21 22 22 32 30 32 30 28 25 26 20 17 13 12 14 17 22 24 26 26 19 11 15 21 26 27 35 28 26 26 25 26 27 28 28 26 24 24 22 21 20 20 18
18 20 15 15 5 9 14 20 21 23 23 17 15 13 16 18 19 19 24 15 20 22 17 17 22 24 25 25 24 25 24 25 26 27 28 27 25 25 24 22 20 20 19 18
11 17 20 29 15 15 8 12 13 16 17 17 15 17 22 23 22 20 20 23 21 20 19 25 22 23 25 25 28 26 26 26 26 27 27 26 25 24 22 21 20 19 18 17
14 8 7 25 9 4 3 16 13 14 14 12 13 18 15 14 16 22 23 25 29 31 29 33 25 26 25 24 28 28 25 26 27 27 27 25 24 22 22 20 19 18 18 17
32 26 19 29 23 23 16 15 3 9 11 16 16 15 21 20 18 22 22 26 30 31 37 33 31 31 29 25 26 30 26 27 26 26 24 24 23 22 21 20 19 19 18 18
24 19 16 13 14 26 35 29 21 18 16 21 25 20 23 23 23 22 24 23 23 28 38 40 37 33 28 27 25 25 25 24 24 23 23 23 22 21 20 20 19 19 18 19
10 14 14 14 12 14 19 20 19 16 17 19 25 23 22 20 16 20 23 27 23 22 27 32 32 26 25 23 23 21 22 21 21 21 22 22 21 21 20 19 19 19 19 19
20 27 20 19 18 16 17 20 22 22 22 18 21 22 22 23 21 16 17 22 29 26 20 20 22 23 20 19 19 20 20 20 21 22 22 21 21 20 20 19 19 20 20 20
23 24 23 21 21 20 24 27 31 29 23 21 18 21 19 17 19 19 16 17 20 20 20 19 18 16 17 18 19 19 20 20 21 21 21 21 20 20 20 20 21 21 20 21
17 12 12 14 13 14 22 25 12 16 17 20 24 22 21 19 15 19 18 20 21 20 18 16 15 16 16 19 20 19 20 20 20 19 20 21 21 21 21 20 21 22 22 22
21 19 20 16 22 18 15 16 17 22 12 21 20 18 19 22 17 19 20 19 17 14 13 14 14 15 16 16 17 17 19 19 19 20 22 22 23 23 22 21 23 24 24 23
9 14 15 14 11 11 10 12 12 8 15 7 8 14 18 18 22 23 23 20 14 10 11 15 15 13 14 15 17 18 19 20 20 23 23 23 24 23 23 23 25 26 25 25
16 15 13 10 10 9 8 11 10 10 8 3 5 4 14 23 21 19 17 10 11 14 14 14 13 13 14 16 17 19 20 20 22 23 22 23 24 24 24 24 26 27 26 26
15 10 10 9 9 11 12 13 13 12 13 13 13 13 12 13 15 17 17 16 15 15 16 16 15 15 16 16 18 20 21 21 23 23 22 23 24 25 26 26 27 28 28 27
9 10 10 12 16 18 18 18 18 17 19 20 20 18 17 17 18 17 14 15 18 18 19 21 19 18 17 17 19 21 22 21 22 23 23 24 25 26 27 27 27 28 29 27
11 12 14 17 18 18 17 16 15 16 18 18 18 19 22 22 22 22 22 22 24 21 22 20 18 18 19 19 22 20 20 19 22 24 24 25 26 26 26 26 27 29 29 26
9 10 12 12 12 13 13 11 9 10 10 12 14 18 19 22 24 23 23 23 22 21 20 19 20 19 19 20 19 19 19 20 23 26 25 25 25 25 26 26 26 27 26 23
7 8 9 9 9 8 6 5 7 7 8 8 7 10 19 23 20 21 22 23 22 21 20 20 19 18 18 19 20 21 20 22 23 23 23 23 23 24 25 25 25 24 23 21
5 6 8 8 9 9 9 10 13 14 15 15 18 20 18 18 18 20 21 24 24 26 22 22 20 20 17 17 20 19 19 20 21 21 21 21 21 22 22 22 21 20 20 19
6 8 9 11 9 11 12 14 15 16 16 15 18 17 18 20 21 22 25 26 26 24 19 16 17 15 16 18 17 18 18 18 19 18 18 18 18 19 19 19 18 18 17 17
10 11 12 14 12 11 12 11 11 11 11 10 9 7 16 18 20 20 16 13 13 15 17 17 14 15 16 15 15 16 16 15 15 15 15 16 16 16 16 16 16 16 16 17
16 16 14 14 12 10 10 10 10 9 8 6 6 7 8 9 11 12 13 14 15 15 13 13 14 15 15 14 14 14 13 13 14 14 14 15 15 15 15 15 15 15 16 16
17 18 15 13 11 8 8 9 9 8 8 9 9 10 11 11 11 11 11 11 11 12 12 12 13 12 12 12 12 12 12 13 13 14 14 14 14 14 14 14 15 15 16 16
14 13 14 12 11 9 8 8 8 9 9 9 9 9 9 9 9 8 8 8 8 8 9 9 10 10 11 11 12 12 12 13 13 13 13 14 14 14 14 15 15 16 16 17
12 14 13 12 11 9 8 8 8 7 7 6 7 7 6 6 6 5 5 6 6 7 8 8 9 9 10 11 12 12 12 13 13 13 14 14 14 14 15 15 15 15 16 17

GFSNGP_700_spd_168.txt.gz
Wind_Speed
23 27 25 26 24 27 23 19 11 18 15 14 14 19 20 17 10 8 18 15 15 15 16 23 23 24 23 23 33 44 46 42 38 22 20 19 22 22 18 15 16 18 18 18
29 27 22 24 27 31 26 29 21 26 27 24 24 19 20 13 14 17 17 22 20 24 18 18 20 24 29 30 35 44 46 48 36 22 24 20 26 23 18 17 18 19 18 18
14 18 23 24 26 23 30 32 37 37 33 25 20 21 20 17 8 13 14 26 26 26 28 25 27 27 24 29 38 44 42 32 26 25 21 27 26 21 20 19 20 19 19 19
20 14 12 20 21 25 26 27 29 37 32 25 24 18 15 11 15 15 20 24 20 22 27 23 18 15 21 31 40 37 31 28 28 30 30 26 23 23 21 20 20 20 20 19
10 17 19 28 33 27 22 28 19 14 17 13 18 17 13 14 17 19 18 23 20 18 17 13 10 11 14 25 28 26 27 27 34 32 24 24 23 22 20 21 21 20 20 18
16 9 7 22 9 7 18 24 16 11 9 9 5 8 10 15 18 18 15 20 17 20 23 22 18 18 18 15 21 24 27 31 32 27 23 26 24 21 22 22 21 20 19 18
34 21 20 24 18 14 10 10 8 8 5 11 14 17 19 18 19 20 21 19 24 23 27 29 22 26 21 26 25 26 31 36 36 27 25 26 23 21 22 22 21 19 19 18
23 18 12 11 14 18 24 25 24 25 28 16 21 23 24 21 25 27 24 22 24 26 26 27 28 33 36 29 32 29 30 34 26 22 24 24 21 22 23 21 19 19 19 18
10 8 10 8 18 18 13 12 22 22 26 26 14 18 23 24 24 27 15 19 22 23 22 25 29 38 33 29 37 34 24 23 23 24 21 21 22 22 21 20 19 19 18 19
20 18 19 17 26 19 11 16 16 18 20 18 17 15 23 23 20 26 21 18 22 24 22 20 24 33 29 28 19 23 15 20 20 20 21 21 21 21 20 19 19 19 19 20
26 24 18 22 19 14 19 24 24 22 26 29 26 20 23 20 20 16 15 17 18 21 22 19 21 21 24 16 13 16 20 19 18 20 20 20 20 20 19 19 18 20 20 20
33 28 30 25 21 4 12 15 21 19 20 20 19 23 23 27 18 17 14 16 17 18 19 20 19 17 15 13 15 16 15 17 18 18 18 19 19 20 19 18 18 21 22 22
32 34 31 21 12 17 14 12 14 17 17 21 23 12 14 23 21 17 15 15 17 19 19 17 15 12 10 11 14 18 20 18 18 18 18 19 19 19 19 18 21 22 22 21
23 28 14 8 11 9 7 7 11 13 17 20 5 12 13 18 15 15 14 18 19 15 14 11 9 9 11 14 15 15 17 17 18 18 18 19 20 19 21 20 21 21 22 22
22 18 13 13 11 9 7 4 8 15 14 15 14 11 5 11 19 21 22 23 24 21 16 13 8 7 13 15 15 16 17 17 17 18 20 20 20 21 21 21 22 21 22 24
17 10 13 8 8 5 5 7 7 6 12 14 11 14 13 13 6 8 19 19 17 9 5 5 9 10 10 12 14 17 16 17 18 20 20 21 21 21 20 21 23 22 22 25
6 7 6 6 7 9 13 12 11 11 13 13 14 12 9 10 13 13 8 6 6 10 8 10 10 12 12 13 16 18 17 17 19 20 20 20 21 22 22 22 23 24 23 22
6 7 8 11 14 15 14 17 17 15 15 16 18 16 15 14 14 14 15 13 10 11 11 11 14 13 12 15 17 17 16 18 19 19 19 18 20 22 23 24 24 24 24 21
4 4 7 10 10 10 10 10 9 11 11 11 12 15 18 18 15 14 13 14 15 15 16 15 16 16 16 18 18 16 15 16 18 18 18 21 22 23 22 22 22 24 25 21
3 3 6 6 7 8 7 5 5 6 6 7 7 8 6 11 16 14 14 16 16 18 18 18 17 17 19 19 18 15 15 18 20 20 21 21 21 21 21 22 22 23 23 20
0 1 3 6 7 9 10 10 9 11 12 12 12 14 15 16 14 16 19 17 17 18 20 19 19 23 21 21 20 18 18 18 19 19 19 19 20 20 21 21 21 21 21 18
3 5 8 10 12 13 13 14 14 15 16 14 13 13 16 17 14 15 15 15 17 23 22 23 19 15 17 16 14 16 17 17 17 17 18 18 18 19 19 19 18 18 17 16
10 11 11 11 13 15 16 16 15 13 11 10 11 11 11 9 11 12 14 16 17 15 11 10 10 13 15 13 13 13 14 15 16 16 16 16 16 16 16 16 15 16 16 16
15 15 15 15 16 15 15 16 13 11 9 8 8 6 3 1 2 4 7 7 7 8 10 12 13 13 12 12 12 13 14 14 14 14 14 14 14 14 15 14 14 15 15 15
17 17 17 16 16 15 14 13 13 9 8 7 7 7 7 8 9 9 9 10 10 11 11 11 11 11 11 12 13 13 13 13 13 13 13 13 13 14 15 14 14 14 14 15
17 15 15 15 14 13 12 12 11 8 7 8 10 10 9 8 8 7 7 7 7 8 9 9 9 10 11 12 12 12 12 13 13 13 13 14 14 15 14 15 15 15 15 16
13 13 13 13 11 13 12 12 9 7 6 6 6 6 6 6 6 5 6 6 6 6 7 7 8 9 10 11 12 12 13 13 13 13 14 14 15 15 15 15 16 16 16 16

GFSNGP_700_spd_171.txt.gz
Wind_Speed
26 32 24 27 28 28 17 24 20 38 36 28 10 14 19 17 13 10 12 14 15 19 14 15 16 15 16 16 21 22 24 32 43 46 43 35 15 8 21 20 14 14 11 12
17 19 13 21 25 28 24 21 25 32 38 37 31 31 24 20 13 16 20 18 17 14 16 17 18 16 16 17 19 23 29 37 45 47 40 26 27 23 24 21 14 14 11 13
16 14 18 16 28 12 18 20 21 26 34 36 32 26 24 24 19 19 23 19 21 21 19 18 20 21 19 22 26 32 25 40 51 49 36 20 25 17 19 18 15 13 13 14
28 25 8 22 25 27 21 20 20 25 27 32 34 27 25 18 14 11 14 19 20 23 22 17 17 22 24 26 30 34 34 40 50 52 40 34 24 15 16 20 17 15 15 15
15 18 24 35 33 22 24 26 24 30 29 24 19 17 21 21 15 14 11 13 19 19 22 21 23 20 13 15 26 31 33 38 49 42 33 30 21 15 19 19 17 17 16 15
19 6 6 14 17 9 20 19 21 21 21 7 7 8 7 14 11 14 17 15 13 19 18 14 12 11 9 16 20 27 30 31 25 32 32 30 22 17 20 20 18 18 16 15
30 20 18 20 21 19 19 8 10 2 5 6 12 3 7 13 15 16 16 16 12 14 15 17 17 17 12 17 14 20 24 30 32 31 33 30 24 21 19 19 19 19 16 15
10 6 9 15 16 20 20 17 18 19 21 23 18 15 16 18 23 20 17 17 19 19 18 21 22 24 25 26 25 24 28 32 35 39 38 33 20 17 18 19 19 19 17 16
12 12 22 23 22 32 23 27 27 15 13 17 20 21 22 21 24 25 21 18 17 19 20 19 21 21 29 21 31 28 33 40 43 43 40 37 29 21 19 19 19 19 18 16
18 4 12 18 22 18 19 10 7 16 22 21 22 20 24 20 20 23 24 21 23 19 19 21 20 21 22 28 31 28 33 27 24 28 31 23 23 22 20 19 19 18 18 16
29 24 24 24 19 21 18 10 9 14 21 19 20 19 25 27 30 22 13 14 17 19 17 18 18 19 21 32 30 22 22 24 17 15 18 21 20 20 19 19 20 18 18 17
32 26 25 28 21 18 16 21 12 11 14 12 18 16 21 25 27 23 15 16 16 19 17 16 18 20 20 17 17 11 10 14 16 15 17 18 20 20 18 18 17 17 19 19
29 26 21 26 23 11 9 10 10 11 12 20 19 13 18 24 22 17 16 15 14 15 14 16 17 18 15 13 10 10 9 11 13 16 19 19 18 17 15 16 17 19 20 21
25 23 24 22 6 12 4 7 7 6 10 13 16 22 8 10 17 15 13 12 12 12 12 18 20 17 14 10 8 7 10 13 14 15 16 15 15 15 15 17 19 21 21 20
19 22 22 17 3 4 6 8 9 8 8 10 12 14 15 14 24 7 15 17 18 20 24 23 16 14 11 9 7 9 12 12 14 15 15 17 15 16 18 20 21 21 21 19
14 12 18 1 6 8 10 10 8 11 12 9 8 9 10 10 9 7 2 5 14 19 22 17 16 13 11 7 11 12 12 14 15 15 16 17 17 19 19 20 20 20 21 20
7 10 8 11 11 7 7 11 11 13 14 14 13 10 11 9 7 6 6 5 2 6 3 5 9 9 9 9 10 12 14 16 16 17 18 18 19 20 18 20 20 20 21 21
4 4 8 4 6 7 9 10 11 9 11 11 13 15 12 11 10 9 7 8 7 5 8 11 10 10 11 11 10 11 14 16 17 18 20 20 20 19 18 19 20 20 20 20
1 2 1 1 3 4 6 6 6 7 7 8 9 9 10 9 9 10 10 9 9 11 10 14 16 12 11 11 10 14 16 17 18 18 18 19 19 18 19 20 20 20 17 18
0 2 1 1 2 3 4 5 5 6 9 9 10 9 8 7 6 8 10 9 10 10 11 15 14 14 14 12 14 14 15 16 17 17 18 19 19 20 20 20 20 20 19 19
3 4 4 4 4 4 6 7 8 8 9 11 13 13 14 15 14 13 12 11 11 11 11 14 16 17 15 15 14 16 16 18 19 16 16 17 18 19 19 19 20 20 18 17
2 4 6 6 7 9 10 12 13 15 15 13 10 10 11 12 13 13 13 12 12 13 14 16 19 20 15 11 11 11 13 14 14 15 15 16 17 18 17 17 17 17 15 15
6 7 8 10 11 12 14 13 13 13 14 12 9 9 9 8 6 3 8 11 11 13 13 11 9 8 5 7 10 12 13 12 13 14 15 15 15 15 15 15 15 16 15 14
10 11 11 11 12 13 14 16 13 11 11 8 7 6 4 2 3 4 3 4 6 5 5 6 6 7 8 10 10 11 12 12 12 13 13 13 13 13 13 14 14 14 14 13
14 14 14 13 13 14 14 13 13 9 8 7 7 6 5 4 4 4 4 4 5 6 6 7 7 8 9 9 10 11 11 11 12 12 12 12 12 13 12 12 13 13 13 14
12 11 11 12 11 11 11 10 10 8 8 7 8 8 7 6 5 5 5 4 4 5 5 5 6 7 8 9 10 10 11 11 12 12 12 12 12 13 13 13 14 14 14 15
10 11 11 10 11 11 10 10 9 8 7 6 6 5 4 3 3 3 2 2 2 2 3 4 5 6 8 9 10 11 11 12 12 12 13 13 13 13 14 14 14 14 15 16

GFSNGP_700_spd_174.txt.gz
Wind_Speed
31 36 26 26 27 28 23 24 17 27 30 44 29 21 20 19 13 19 19 16 18 18 19 20 22 22 21 18 18 21 23 26 27 29 36 41 42 40 34 24 33 25 17 16
30 26 19 19 27 30 24 31 27 28 35 28 24 20 27 28 24 20 23 25 21 16 14 14 20 16 15 19 20 21 24 27 27 32 38 46 45 42 34 22 25 23 18 16
19 21 18 22 38 33 31 28 26 27 28 22 15 19 24 22 22 23 23 27 30 25 15 12 12 11 13 15 18 21 20 20 30 34 39 47 44 31 23 26 20 19 14 15
23 19 8 31 27 21 18 25 28 34 35 34 29 27 25 25 25 23 23 29 29 25 18 16 13 13 14 18 23 23 26 28 25 35 42 45 44 38 39 30 22 18 15 17
12 17 20 28 16 9 5 15 7 16 23 25 28 29 26 19 21 21 17 12 14 18 19 19 13 15 19 22 23 25 28 32 28 29 39 47 42 30 24 19 19 17 19 18
17 7 6 12 7 8 18 24 7 13 8 7 14 17 9 13 29 23 25 19 21 16 16 14 14 16 13 12 13 16 22 32 29 31 35 44 32 30 25 20 19 21 21 17
27 22 16 19 21 18 12 17 18 19 24 18 15 13 8 5 7 8 10 18 18 11 6 10 11 15 12 12 14 15 20 27 31 32 32 54 50 42 27 23 21 20 18 17
13 8 9 13 15 14 16 24 25 20 13 9 14 8 13 14 7 12 12 13 15 13 9 10 13 16 15 18 15 11 20 24 31 27 29 36 40 37 31 28 23 20 17 17
15 17 14 18 24 18 22 27 26 14 10 20 16 13 12 17 20 25 24 22 19 14 11 11 15 19 21 21 20 17 18 26 27 34 34 35 35 35 27 23 18 17 17 18
30 25 14 17 22 15 20 22 21 19 9 13 18 19 17 16 20 17 20 13 13 15 13 12 11 14 18 19 22 22 21 32 36 40 41 41 41 37 30 24 18 17 17 17
33 31 28 25 22 19 18 12 11 17 13 14 23 16 15 16 17 18 19 14 12 12 11 12 13 15 19 18 19 23 23 31 35 38 37 40 41 32 27 18 17 20 21 19
33 27 24 23 22 19 18 10 6 6 6 14 19 19 14 14 10 15 19 15 14 15 14 16 16 18 17 17 16 21 21 20 17 19 25 25 22 21 20 24 24 21 20 17
27 26 26 20 22 21 19 13 5 3 5 10 15 20 18 11 14 20 17 16 15 14 13 16 17 16 16 16 16 16 14 17 14 13 14 15 18 21 21 21 19 19 18 17
25 24 23 22 20 15 7 2 3 1 6 9 11 12 13 13 17 9 14 13 14 15 15 15 14 16 17 18 18 12 11 13 13 16 17 19 20 19 18 17 19 19 19 20
17 19 20 21 6 9 5 3 2 5 10 10 10 10 10 12 14 17 15 6 12 15 16 16 17 20 23 21 17 14 12 13 16 18 20 20 19 18 17 18 19 19 20 19
16 16 15 10 9 13 9 9 10 10 12 13 10 9 8 8 9 9 10 8 6 8 16 22 24 20 17 15 14 14 14 15 16 16 16 15 15 15 16 17 17 18 18 19
10 10 10 14 12 9 12 11 11 10 12 10 8 8 9 8 7 4 3 4 3 5 7 5 9 14 15 12 11 7 9 10 11 13 13 12 13 14 16 18 18 19 19 20
7 0 8 12 8 10 11 10 9 8 9 7 6 6 6 7 6 6 5 4 4 4 8 9 10 12 10 8 8 8 10 11 11 12 13 13 15 16 18 18 18 20 20 21
8 6 7 6 7 6 3 3 3 4 5 5 6 5 6 7 6 5 6 8 8 8 10 15 15 13 13 10 8 9 10 11 13 14 15 17 18 18 18 18 19 20 21 23
6 6 4 3 2 2 1 1 2 3 4 7 10 11 10 10 8 6 7 7 8 10 12 13 14 14 8 10 9 12 13 15 15 17 18 18 18 18 19 21 21 20 20 22
11 10 8 6 5 2 2 2 3 4 4 6 9 12 15 15 16 16 13 12 13 13 13 12 13 14 13 12 13 15 16 14 15 16 17 20 20 18 19 20 20 19 20 20
6 4 2 1 2 4 5 6 6 6 7 8 8 8 9 11 13 15 15 16 15 16 14 13 13 12 15 18 16 14 11 11 12 13 15 16 17 18 18 19 19 18 18 19
4 5 6 7 7 7 8 8 9 10 10 9 7 8 8 7 7 8 10 10 11 12 11 11 16 15 11 10 8 7 9 11 13 13 14 15 16 16 16 17 16 16 16 16
9 9 9 9 10 10 10 10 10 10 10 10 7 4 4 3 1 2 3 6 8 8 8 9 9 9 8 7 8 9 9 10 11 12 13 13 13 13 13 13 13 13 14 14
10 9 9 10 11 11 10 10 11 11 10 7 7 5 4 4 3 2 3 3 4 5 6 6 6 8 8 9 8 8 9 10 10 10 10 10 10 11 11 11 12 12 12 13
14 12 11 11 11 11 10 9 10 10 11 8 7 6 5 5 3 4 4 4 4 5 5 5 6 6 7 7 7 8 9 9 9 9 9 10 10 10 10 11 11 11 12 12
12 11 12 13 15 15 13 11 8 7 9 7 6 3 2 2 2 2 3 3 3 3 3 3 3 4 5 6 7 8 8 9 9 9 9 10 10 11 11 11 12 13 13 15